Athens, TX

3:04 AM CDT on June 24, 2017 (GMT -0500)
Athens

Weather History for KF44 - November, 2012

Change the Weather History Date:

Tuesday, November 13, 2012

  Actual Average (KTYR) Record (KTYR)
Temperature  
Mean Temperature 42 °F -  
Max Temperature 54 °F 64 °F 86 °F (2005)
Min Temperature 30 °F 46 °F 22 °F (1907)
Degree Days  
Heating Degree Days 23    
Moisture  
Dew Point 31 °F    
Average Humidity 68    
Maximum Humidity 97    
Minimum Humidity 31    
Precipitation  
Precipitation 0.00 in - - ()
Sea Level Pressure  
Sea Level Pressure 30.43 in    
Wind  
Wind Speed 1 mph ()    
Max Wind Speed 13 mph    
Max Gust Speed 17 mph    
Visibility 9.8 miles    
Events      
Averages and records for this station are not official NWS values.
T = Trace of Precipitation, MM = Missing Value Source: Averaged Metar Reports

Daily Weather History Graph

Daily Weather History Graph

Search for Another Location

Airport or City:

Trip Planner

Search our weather history database for the weather conditions in past years. The results will help you decide how hot, cold, wet, or windy it might be!

Date:

Astronomy

Nov. 13, 2012 Rise Set
Actual Time 6:50 AM CST 5:24 PM CST
Civil Twilight 6:25 AM CST 5:49 PM CST
Nautical Twilight 5:55 AM CST 6:19 PM CST
Astronomical Twilight 5:26 AM CST 6:48 PM CST
Moon 6:29 AM CST (11/13) 5:19 PM CST (11/13)
Length of Visible Light 11h 24m
Length of Day
10h 33m
Waning Crescent, 0% of the Moon is Illuminated
Nov 13
Waning Crescent
Nov 13
New
Nov 20
First Quarter
Nov 28
Full
Dec 6
Last Quarter

Hourly Weather History & Observations

Time (CST) Temp. Windchill Dew Point Humidity Pressure Visibility Wind Dir Wind Speed Gust Speed Precip Events Conditions
12:15 AM 34.5 °F - 31.8 °F 90% 30.48 in 10.0 mi Calm Calm - N/A   Clear
12:35 AM 33.8 °F - 31.6 °F 92% 30.49 in 10.0 mi Calm Calm - N/A   Clear
12:55 AM 32.7 °F - 31.5 °F 95% 30.49 in 10.0 mi Calm Calm - N/A   Clear
1:15 AM 32.0 °F - 31.1 °F 96% 30.49 in 10.0 mi Calm Calm - N/A   Clear
1:35 AM 31.8 °F - 30.7 °F 96% 30.49 in 10.0 mi Calm Calm - N/A   Clear
1:55 AM 32.0 °F - 30.7 °F 95% 30.49 in 10.0 mi Calm Calm - N/A   Clear
2:15 AM 32.2 °F - 31.5 °F 97% 30.48 in 10.0 mi Calm Calm - N/A   Clear
2:35 AM 32.4 °F - 31.3 °F 96% 30.48 in 10.0 mi Calm Calm - N/A   Clear
2:55 AM 32.2 °F - 31.5 °F 97% 30.48 in 10.0 mi Calm Calm - N/A   Clear
3:15 AM 32.2 °F - 31.3 °F 96% 30.48 in 10.0 mi Calm Calm - N/A   Clear
3:35 AM 32.2 °F - 31.3 °F 96% 30.48 in 10.0 mi Calm Calm - N/A   Clear
3:55 AM 32.0 °F - 30.9 °F 96% 30.47 in 10.0 mi Calm Calm - N/A   Clear
4:15 AM 31.8 °F - 30.7 °F 96% 30.47 in 10.0 mi Calm Calm - N/A   Clear
4:35 AM 31.3 °F - 30.4 °F 96% 30.46 in 10.0 mi Calm Calm - N/A   Clear
4:55 AM 30.9 °F - 30.2 °F 97% 30.47 in 10.0 mi Calm Calm - N/A   Clear
5:15 AM 31.1 °F - 30.0 °F 96% 30.47 in 10.0 mi Calm Calm - N/A   Clear
5:35 AM 31.8 °F - 30.0 °F 93% 30.48 in 10.0 mi Calm Calm - N/A   Clear
5:55 AM 32.0 °F - 30.0 °F 92% 30.48 in 10.0 mi Calm Calm - N/A   Clear
6:15 AM 31.6 °F - 29.8 °F 93% 30.48 in 10.0 mi Calm Calm - N/A   Clear
6:35 AM 30.9 °F - 29.3 °F 94% 30.49 in 10.0 mi Calm Calm - N/A   Clear
6:55 AM 30.9 °F - 30.0 °F 96% 30.49 in 10.0 mi Calm Calm - N/A   Clear
7:15 AM 30.7 °F - 29.8 °F 96% 30.50 in 10.0 mi Calm Calm - N/A   Clear
7:35 AM 31.3 °F - 30.4 °F 96% 30.51 in 10.0 mi Calm Calm - N/A   Clear
7:55 AM 33.3 °F - 31.6 °F 94% 30.52 in 10.0 mi Calm Calm - N/A   Clear
8:15 AM 35.8 °F - 32.0 °F 86% 30.52 in 10.0 mi Calm Calm - N/A   Clear
8:35 AM 38.3 °F - 33.4 °F 83% 30.52 in 10.0 mi Calm Calm - N/A   Clear
8:55 AM 41.5 °F - 32.9 °F 71% 30.52 in 10.0 mi Calm Calm - N/A   Clear
9:15 AM 43.9 °F 41.3 °F 33.3 °F 66% 30.51 in 10.0 mi ENE 4.6 mph - N/A   Clear
9:35 AM 46.0 °F 41.9 °F 32.0 °F 58% 30.52 in 10.0 mi East 8.1 mph - N/A   Clear
9:55 AM 47.8 °F - 31.3 °F 53% 30.51 in 10.0 mi East 8.1 mph - N/A   Clear
10:15 AM 49.3 °F - 31.5 °F 50% 30.51 in 10.0 mi East 8.1 mph - N/A   Clear
10:35 AM 50.4 °F - 29.8 °F 45% 30.50 in 10.0 mi East 12.7 mph 17.3 mph N/A   Clear
10:55 AM 50.9 °F - 27.0 °F 40% 30.48 in 10.0 mi East 9.2 mph 16.1 mph N/A   Clear
11:15 AM 52.0 °F - 26.6 °F 37% 30.48 in 10.0 mi East 10.4 mph - N/A   Clear
11:35 AM 52.2 °F - 25.7 °F 36% 30.47 in 10.0 mi East 9.2 mph - N/A   Clear
11:55 AM 51.8 °F - 25.5 °F 36% 30.45 in 10.0 mi East 9.2 mph - N/A   Clear
12:15 PM 52.0 °F - 25.9 °F 36% 30.44 in 10.0 mi ESE 9.2 mph - N/A   Clear
12:55 PM 53.2 °F - 26.6 °F 36% 30.42 in 10.0 mi SSE 3.5 mph - N/A   Clear
1:15 PM 54.0 °F - 26.4 °F 35% 30.41 in 10.0 mi East 3.5 mph - N/A   Clear
1:35 PM 54.0 °F - 25.3 °F 33% 30.40 in 10.0 mi East 5.8 mph - N/A   Clear
1:55 PM 54.1 °F - 24.8 °F 32% 30.39 in 10.0 mi East 4.6 mph - N/A   Clear
2:15 PM 54.9 °F - 25.2 °F 32% 30.37 in 10.0 mi NE 3.5 mph - N/A   Clear
2:35 PM 54.5 °F - 24.6 °F 31% 30.37 in 10.0 mi East 8.1 mph - N/A   Clear
2:55 PM 54.7 °F - 25.0 °F 32% 30.37 in 10.0 mi Calm Calm - N/A   Clear
3:15 PM 54.5 °F - 25.3 °F 32% 30.36 in 10.0 mi ENE 4.6 mph - N/A   Clear
3:35 PM 54.1 °F - 25.2 °F 33% 30.36 in 10.0 mi Calm Calm - N/A   Clear
3:55 PM 54.1 °F - 24.8 °F 32% 30.37 in 10.0 mi NNE 3.5 mph - N/A   Clear
4:15 PM 54.0 °F - 25.5 °F 33% 30.37 in 10.0 mi NE 4.6 mph - N/A   Clear
4:35 PM 53.6 °F - 25.9 °F 34% 30.36 in 1.5 mi ENE 3.5 mph - N/A   Haze
4:55 PM 53.1 °F - 26.8 °F 36% 30.36 in 10.0 mi Calm Calm - N/A   Clear
5:15 PM 52.3 °F - 27.5 °F 38% 30.36 in 10.0 mi Calm Calm - N/A   Clear
5:35 PM 51.3 °F - 28.4 °F 41% 30.36 in 10.0 mi Calm Calm - N/A   Clear
5:55 PM 50.2 °F - 29.8 °F 46% 30.35 in 10.0 mi Calm Calm - N/A   Clear
6:15 PM 48.7 °F - 30.9 °F 50% 30.36 in 10.0 mi Calm Calm - N/A   Clear
6:35 PM 46.9 °F - 32.0 °F 56% 30.36 in 10.0 mi Calm Calm - N/A   Clear
6:55 PM 46.0 °F - 34.7 °F 65% 30.35 in 10.0 mi Calm Calm - N/A   Clear
7:15 PM 45.0 °F - 34.2 °F 66% 30.36 in 10.0 mi Calm Calm - N/A   Clear
7:35 PM 44.1 °F - 34.2 °F 68% 30.37 in 10.0 mi Calm Calm - N/A   Clear
7:55 PM 42.8 °F - 34.0 °F 71% 30.37 in 10.0 mi Calm Calm - N/A   Clear
8:15 PM 41.9 °F - 34.5 °F 75% 30.38 in 10.0 mi Calm Calm - N/A   Scattered Clouds
8:35 PM 41.7 °F - 35.8 °F 79% 30.37 in 10.0 mi Calm Calm - N/A   Scattered Clouds
8:55 PM 41.7 °F - 36.7 °F 82% 30.37 in 10.0 mi Calm Calm - N/A   Mostly Cloudy
9:15 PM 43.3 °F - 37.4 °F 80% 30.38 in 10.0 mi Calm Calm - N/A   Overcast
9:35 PM 44.8 °F - 37.8 °F 76% 30.40 in 10.0 mi Calm Calm - N/A   Overcast
9:55 PM 46.2 °F - 37.8 °F 72% 30.39 in 10.0 mi Calm Calm - N/A   Overcast
10:15 PM 45.9 °F - 39.6 °F 79% 30.39 in 10.0 mi Calm Calm - N/A   Overcast
10:35 PM 45.9 °F - 39.9 °F 80% 30.39 in 7.0 mi Calm Calm - N/A   Overcast
10:55 PM 45.5 °F 44.2 °F 40.1 °F 81% 30.37 in 10.0 mi East 3.5 mph - N/A   Overcast
11:15 PM 46.4 °F - 37.9 °F 72% 30.37 in 10.0 mi Calm Calm - N/A   Overcast
11:35 PM 47.3 °F - 36.5 °F 66% 30.38 in 10.0 mi Calm Calm - N/A   Overcast
11:55 PM 47.1 °F - 37.6 °F 69% 30.38 in 10.0 mi Calm Calm - N/A   Overcast